Time,TemperatureF,DewpointF,PressureIn,WindDirection,WindDirectionDegrees,WindSpeedMPH,WindSpeedGustMPH,Humidity,HourlyPrecipIn,Conditions,Clouds,dailyrainin,SoftwareType,DateUTC
2013-07-17 00:00:00,73.8,67.7,30.50,SSW,203,0.0,0.0,81,0.00,,,0.00,WUHU216HW,2013-07-17 05:00:00,
2013-07-17 00:05:00,73.8,67.7,30.50,SSW,203,0.0,0.0,81,0.00,,,0.00,WUHU216HW,2013-07-17 05:05:00,
2013-07-17 00:30:00,73.1,67.3,30.50,West,270,0.0,0.0,82,0.00,,,0.00,WUHU216HW,2013-07-17 05:30:00,
2013-07-17 00:35:00,73.1,67.3,30.50,West,270,0.0,0.0,82,0.00,,,0.00,WUHU216HW,2013-07-17 05:35:00,
2013-07-17 01:00:00,72.7,67.2,30.50,WSW,248,0.0,0.0,83,0.00,,,0.00,WUHU216HW,2013-07-17 06:00:00,
2013-07-17 01:05:00,72.7,67.2,30.50,WSW,248,0.0,0.0,83,0.00,,,0.00,WUHU216HW,2013-07-17 06:05:00,
2013-07-17 01:10:00,72.7,67.2,30.50,WSW,248,0.0,0.0,83,0.00,,,0.00,WUHU216HW,2013-07-17 06:10:00,
2013-07-17 01:30:00,72.4,66.9,30.50,NNW,338,0.0,0.0,83,0.00,,,0.00,WUHU216HW,2013-07-17 06:30:00,
2013-07-17 01:35:00,72.4,66.9,30.50,NNW,338,0.0,0.0,83,0.00,,,0.00,WUHU216HW,2013-07-17 06:35:00,
2013-07-17 02:00:00,71.6,66.5,30.50,NW,315,0.0,0.0,84,0.00,,,0.00,WUHU216HW,2013-07-17 07:00:00,
2013-07-17 02:05:00,71.6,66.5,30.50,NW,315,0.0,0.0,84,0.00,,,0.00,WUHU216HW,2013-07-17 07:05:00,
2013-07-17 02:30:00,71.3,66.2,30.49,NW,315,0.0,0.0,84,0.00,,,0.00,WUHU216HW,2013-07-17 07:30:00,
2013-07-17 02:35:00,71.3,66.2,30.49,NW,315,0.0,0.0,84,0.00,,,0.00,WUHU216HW,2013-07-17 07:35:00,
2013-07-17 03:00:00,70.7,66.0,30.50,NW,315,0.0,0.0,85,0.00,,,0.00,WUHU216HW,2013-07-17 08:00:00,
2013-07-17 03:05:00,70.7,66.0,30.50,NW,315,0.0,0.0,85,0.00,,,0.00,WUHU216HW,2013-07-17 08:05:00,
2013-07-17 03:30:00,70.4,65.6,30.50,NW,315,0.0,0.0,85,0.00,,,0.00,WUHU216HW,2013-07-17 08:30:00,
2013-07-17 03:35:00,70.4,65.6,30.50,NW,315,0.0,0.0,85,0.00,,,0.00,WUHU216HW,2013-07-17 08:35:00,
2013-07-17 04:00:00,70.0,65.6,30.50,WNW,293,0.0,0.0,86,0.00,,,0.00,WUHU216HW,2013-07-17 09:00:00,
2013-07-17 04:05:00,70.0,65.6,30.50,WNW,293,0.0,0.0,86,0.00,,,0.00,WUHU216HW,2013-07-17 09:05:00,
2013-07-17 04:30:00,69.8,65.4,30.50,NNW,338,0.0,0.0,86,0.00,,,0.00,WUHU216HW,2013-07-17 09:30:00,
2013-07-17 04:35:00,69.8,65.4,30.50,NNW,338,0.0,0.0,86,0.00,,,0.00,WUHU216HW,2013-07-17 09:35:00,
2013-07-17 04:40:00,69.8,65.4,30.50,NNW,338,0.0,0.0,86,0.00,,,0.00,WUHU216HW,2013-07-17 09:40:00,
2013-07-17 05:00:00,69.7,65.3,30.51,West,270,0.0,0.0,86,0.00,,,0.00,WUHU216HW,2013-07-17 10:00:00,
2013-07-17 05:05:00,69.7,65.3,30.51,West,270,0.0,0.0,86,0.00,,,0.00,WUHU216HW,2013-07-17 10:05:00,
2013-07-17 05:30:00,69.5,65.1,30.51,West,270,0.0,0.0,86,0.00,,,0.00,WUHU216HW,2013-07-17 10:30:00,
2013-07-17 05:35:00,69.5,65.1,30.51,West,270,0.0,0.0,86,0.00,,,0.00,WUHU216HW,2013-07-17 10:35:00,
2013-07-17 06:00:00,69.8,66.1,30.51,NW,315,0.0,0.0,88,0.00,,,0.00,WUHU216HW,2013-07-17 11:00:00,
2013-07-17 06:05:00,69.8,66.1,30.51,NW,315,0.0,0.0,88,0.00,,,0.00,WUHU216HW,2013-07-17 11:05:00,
2013-07-17 06:30:00,70.6,66.8,30.51,NW,315,0.0,0.0,88,0.00,,,0.00,WUHU216HW,2013-07-17 11:30:00,
2013-07-17 06:35:00,70.6,66.8,30.51,NW,315,0.0,0.0,88,0.00,,,0.00,WUHU216HW,2013-07-17 11:35:00,
2013-07-17 06:59:00,71.8,68.0,30.51,South,180,0.7,0.7,88,0.00,,,0.00,WUHU216HW,2013-07-17 11:59:00,
2013-07-17 07:04:00,71.8,68.0,30.51,South,180,0.7,0.7,88,0.00,,,0.00,WUHU216HW,2013-07-17 12:04:00,
2013-07-17 07:10:00,71.8,68.0,30.51,South,180,0.7,0.7,88,0.00,,,0.00,WUHU216HW,2013-07-17 12:10:00,
2013-07-17 07:30:00,73.3,69.2,30.52,NNE,23,0.0,0.0,87,0.00,,,0.00,WUHU216HW,2013-07-17 12:30:00,
2013-07-17 07:35:00,73.3,69.2,30.52,NNE,23,0.0,0.0,87,0.00,,,0.00,WUHU216HW,2013-07-17 12:35:00,
2013-07-17 07:59:00,75.2,70.5,30.52,SSE,158,0.0,0.0,85,0.00,,,0.00,WUHU216HW,2013-07-17 12:59:00,
2013-07-17 08:05:00,75.2,70.5,30.52,ESE,113,0.2,0.2,85,0.00,,,0.00,WUHU216HW,2013-07-17 13:05:00,
2013-07-17 08:10:00,75.2,70.5,30.52,ESE,113,0.2,0.2,85,0.00,,,0.00,WUHU216HW,2013-07-17 13:10:00,
2013-07-17 08:30:00,77.0,71.1,30.52,South,180,0.0,0.0,82,0.00,,,0.00,WUHU216HW,2013-07-17 13:30:00,
2013-07-17 08:35:00,77.0,71.1,30.52,South,180,0.0,0.0,82,0.00,,,0.00,WUHU216HW,2013-07-17 13:35:00,
2013-07-17 09:00:00,79.4,71.9,30.52,West,270,1.1,1.1,78,0.00,,,0.00,WUHU216HW,2013-07-17 14:00:00,
2013-07-17 09:05:00,79.4,71.9,30.52,West,270,1.1,1.1,78,0.00,,,0.00,WUHU216HW,2013-07-17 14:05:00,
2013-07-17 09:30:00,85.0,72.8,30.52,SSW,203,0.9,0.9,67,0.00,,,0.00,WUHU216HW,2013-07-17 14:30:00,
2013-07-17 09:35:00,85.0,72.8,30.52,SSW,203,0.9,0.9,67,0.00,,,0.00,WUHU216HW,2013-07-17 14:35:00,
2013-07-17 09:59:00,85.7,72.1,30.52,SE,135,1.8,1.8,64,0.00,,,0.00,WUHU216HW,2013-07-17 14:59:00,
2013-07-17 10:05:00,85.7,72.1,30.52,SE,135,1.8,1.8,64,0.00,,,0.00,WUHU216HW,2013-07-17 15:05:00,
2013-07-17 10:09:00,85.7,72.1,30.52,SE,135,1.8,1.8,64,0.00,,,0.00,WUHU216HW,2013-07-17 15:09:00,
2013-07-17 10:30:00,84.4,70.9,30.51,West,270,2.2,2.2,64,0.00,,,0.00,WUHU216HW,2013-07-17 15:30:00,
2013-07-17 10:35:00,84.4,70.9,30.51,West,270,2.2,2.2,64,0.00,,,0.00,WUHU216HW,2013-07-17 15:35:00,
2013-07-17 10:59:00,85.7,70.8,30.51,WSW,248,1.6,1.6,61,0.00,,,0.00,WUHU216HW,2013-07-17 15:59:00,
2013-07-17 11:04:00,85.7,70.8,30.51,WSW,248,1.6,1.6,61,0.00,,,0.00,WUHU216HW,2013-07-17 16:04:00,
2013-07-17 11:30:00,86.4,70.9,30.51,NNW,338,0.2,0.2,60,0.00,,,0.00,WUHU216HW,2013-07-17 16:30:00,
2013-07-17 11:35:00,86.4,70.9,30.51,NNW,338,0.2,0.2,60,0.00,,,0.00,WUHU216HW,2013-07-17 16:35:00,
2013-07-17 11:59:00,85.5,70.1,30.50,NNE,23,1.1,1.1,60,0.00,,,0.00,WUHU216HW,2013-07-17 16:59:00,
2013-07-17 12:04:00,85.5,70.1,30.50,NNE,23,1.1,1.1,60,0.00,,,0.00,WUHU216HW,2013-07-17 17:04:00,
2013-07-17 12:30:00,88.4,69.0,30.50,SE,135,2.5,2.5,53,0.00,,,0.00,WUHU216HW,2013-07-17 17:30:00,
2013-07-17 12:35:00,88.4,69.0,30.50,SE,135,2.5,2.5,53,0.00,,,0.00,WUHU216HW,2013-07-17 17:35:00,
2013-07-17 13:00:00,88.2,69.5,30.49,NNW,338,1.3,1.3,54,0.00,,,0.00,WUHU216HW,2013-07-17 18:00:00,
2013-07-17 13:05:00,88.2,69.5,30.49,NNW,338,1.3,1.3,54,0.00,,,0.00,WUHU216HW,2013-07-17 18:05:00,
2013-07-17 13:30:00,89.1,69.8,30.48,North,0,0.0,0.0,53,0.00,,,0.00,WUHU216HW,2013-07-17 18:30:00,
2013-07-17 13:35:00,89.1,69.8,30.48,North,0,0.0,0.0,53,0.00,,,0.00,WUHU216HW,2013-07-17 18:35:00,
2013-07-17 14:00:00,90.0,70.0,30.48,NW,315,0.4,0.4,52,0.00,,,0.00,WUHU216HW,2013-07-17 19:00:00,
2013-07-17 14:04:00,90.0,70.0,30.48,NW,315,0.4,0.4,52,0.00,,,0.00,WUHU216HW,2013-07-17 19:04:00,
2013-07-17 14:30:00,90.0,69.5,30.47,NNW,338,1.3,1.3,51,0.00,,,0.00,WUHU216HW,2013-07-17 19:30:00,
2013-07-17 14:35:00,90.0,69.5,30.47,NNW,338,1.3,1.3,51,0.00,,,0.00,WUHU216HW,2013-07-17 19:35:00,
2013-07-17 15:00:00,89.1,69.8,30.45,NW,315,0.7,0.7,53,0.00,,,0.00,WUHU216HW,2013-07-17 20:00:00,
2013-07-17 15:05:00,89.1,69.8,30.45,NW,315,0.7,0.7,53,0.00,,,0.00,WUHU216HW,2013-07-17 20:05:00,
2013-07-17 15:30:00,90.7,70.1,30.45,NNE,23,0.4,0.4,51,0.00,,,0.00,WUHU216HW,2013-07-17 20:30:00,
2013-07-17 15:35:00,90.7,70.1,30.45,NNE,23,0.4,0.4,51,0.00,,,0.00,WUHU216HW,2013-07-17 20:35:00,
2013-07-17 16:00:00,89.5,69.5,30.45,South,180,0.4,0.4,52,0.00,,,0.00,WUHU216HW,2013-07-17 21:00:00,
2013-07-17 16:05:00,89.5,69.5,30.45,South,180,0.4,0.4,52,0.00,,,0.00,WUHU216HW,2013-07-17 21:05:00,
2013-07-17 16:30:00,88.6,69.2,30.44,North,0,0.9,0.9,53,0.00,,,0.00,WUHU216HW,2013-07-17 21:30:00,
2013-07-17 16:35:00,88.6,69.2,30.44,North,0,0.9,0.9,53,0.00,,,0.00,WUHU216HW,2013-07-17 21:35:00,
2013-07-17 17:00:00,88.2,69.0,30.44,NW,315,2.0,2.0,53,0.00,,,0.00,WUHU216HW,2013-07-17 22:00:00,
2013-07-17 17:05:00,88.2,69.0,30.44,NW,315,2.0,2.0,53,0.00,,,0.00,WUHU216HW,2013-07-17 22:05:00,
2013-07-17 17:30:00,87.3,69.1,30.44,NW,315,0.9,0.9,55,0.00,,,0.00,WUHU216HW,2013-07-17 22:30:00,
2013-07-17 17:35:00,87.3,69.1,30.44,NW,315,0.9,0.9,55,0.00,,,0.00,WUHU216HW,2013-07-17 22:35:00,
2013-07-17 18:00:00,86.4,68.3,30.43,North,0,0.4,0.4,55,0.00,,,0.00,WUHU216HW,2013-07-17 23:00:00,
2013-07-17 18:05:00,86.4,68.3,30.43,North,0,0.4,0.4,55,0.00,,,0.00,WUHU216HW,2013-07-17 23:05:00,
2013-07-17 18:30:00,85.7,68.7,30.42,NE,45,0.4,0.4,57,0.00,,,0.00,WUHU216HW,2013-07-17 23:30:00,
2013-07-17 18:35:00,85.7,68.7,30.42,NE,45,0.4,0.4,57,0.00,,,0.00,WUHU216HW,2013-07-17 23:35:00,
2013-07-17 19:00:00,84.8,68.4,30.42,SSE,158,0.9,0.9,58,0.00,,,0.00,WUHU216HW,2013-07-18 00:00:00,
2013-07-17 19:05:00,84.8,68.4,30.42,SSE,158,0.9,0.9,58,0.00,,,0.00,WUHU216HW,2013-07-18 00:05:00,
2013-07-17 19:30:00,84.1,68.8,30.42,NNW,338,0.2,0.2,60,0.00,,,0.00,WUHU216HW,2013-07-18 00:30:00,
2013-07-17 19:35:00,84.1,68.8,30.42,NNW,338,0.2,0.2,60,0.00,,,0.00,WUHU216HW,2013-07-18 00:35:00,
2013-07-17 20:00:00,82.8,68.0,30.41,South,180,0.0,0.0,61,0.00,,,0.00,WUHU216HW,2013-07-18 01:00:00,
2013-07-17 20:05:00,82.8,68.0,30.41,South,180,0.0,0.0,61,0.00,,,0.00,WUHU216HW,2013-07-18 01:05:00,
2013-07-17 20:30:00,81.0,68.1,30.42,West,270,0.0,0.0,65,0.00,,,0.00,WUHU216HW,2013-07-18 01:30:00,
2013-07-17 20:35:00,81.0,68.1,30.42,West,270,0.0,0.0,65,0.00,,,0.00,WUHU216HW,2013-07-18 01:35:00,
2013-07-17 21:00:00,79.2,68.1,30.42,WSW,248,0.0,0.0,69,0.00,,,0.00,WUHU216HW,2013-07-18 02:00:00,
2013-07-17 21:05:00,79.2,68.1,30.42,WSW,248,0.0,0.0,69,0.00,,,0.00,WUHU216HW,2013-07-18 02:05:00,
2013-07-17 21:10:00,79.2,68.1,30.42,WSW,248,0.0,0.0,69,0.00,,,0.00,WUHU216HW,2013-07-18 02:10:00,
2013-07-17 21:30:00,77.9,67.8,30.42,SW,225,0.0,0.0,71,0.00,,,0.00,WUHU216HW,2013-07-18 02:30:00,
2013-07-17 21:35:00,77.9,67.8,30.42,SW,225,0.0,0.0,71,0.00,,,0.00,WUHU216HW,2013-07-18 02:35:00,
2013-07-17 22:00:00,77.0,67.3,30.41,SW,225,0.0,0.0,72,0.00,,,0.00,WUHU216HW,2013-07-18 03:00:00,
2013-07-17 22:04:00,77.0,67.3,30.41,SW,225,0.0,0.0,72,0.00,,,0.00,WUHU216HW,2013-07-18 03:04:00,
2013-07-17 22:09:00,77.0,67.3,30.41,SW,225,0.0,0.0,72,0.00,,,0.00,WUHU216HW,2013-07-18 03:09:00,
2013-07-17 22:30:00,76.1,67.2,30.41,SE,135,0.0,0.0,74,0.00,,,0.00,WUHU216HW,2013-07-18 03:30:00,
2013-07-17 22:35:00,76.1,67.2,30.41,SE,135,0.0,0.0,74,0.00,,,0.00,WUHU216HW,2013-07-18 03:35:00,
2013-07-17 23:00:00,75.8,67.3,30.41,NW,315,0.4,0.4,75,0.00,,,0.00,WUHU216HW,2013-07-18 04:00:00,
2013-07-17 23:01:00,75.8,67.3,30.41,NW,315,0.4,0.4,75,0.00,,,0.00,WUHU216HW,2013-07-18 04:01:00,
2013-07-17 23:06:00,75.8,67.3,30.41,NW,315,0.4,0.4,75,0.00,,,0.00,WUHU216HW,2013-07-18 04:06:00,
2013-07-17 23:30:00,75.6,67.2,30.41,SW,225,0.0,0.0,75,0.00,,,0.00,WUHU216HW,2013-07-18 04:30:00,
2013-07-17 23:35:00,75.6,67.2,30.41,SW,225,0.0,0.0,75,0.00,,,0.00,WUHU216HW,2013-07-18 04:35:00,